[Date Prev][Date Next][Thread Prev][Thread Next] - [Date Index][Thread Index][Author Index]
2 Line ISS Keps 7-20
- Subject: [sarex] 2 Line ISS Keps 7-20
- From: "Dave Larsen PhD" <doc@xxxxxxxxxxx>
- Date: Thu, 20 Jul 2006 06:52:15 -0700
ISS
1 25544U 98067A 06201.45350684 .00009365 00000-0 57627-4 0 3352
2 25544 051.6332 016.1003 0010642 096.0756 264.1991 15.76398944438417
----
Via the sarex mailing list at AMSAT.ORG courtesy of AMSAT-NA.
To unsubscribe, send "unsubscribe sarex" to Majordomo@amsat.org
AMSAT Home